Ana Sayfa
METAR-TAF:

METAR-TAF

Havaalanları :

Harriman-and-West Airport

North Adams, Massachusetts, Amerika Birleşik Devletleri

Enlem: 42-41-50N, Boylam: 073-10-13W, yükseklik: 199 m

Güncel hava durumu gözlemi

Rapor saat 19:52 UTC de 52 dakika önce yapıldı.
Rüzgar batı/güneybatıdan 4 kt
Sıcaklık 9°C
Nem 37%
Basınç 1017 hPa
Görüş mesafesi: 16.1 km
Açık gökyüzü

METAR: KAQW 231952Z AUTO 25004KT 10SM CLR 09/M05 A3004 RMK AO2 SLP181 T00891050 $

Saat: 15:44 (20:44 UTC)


TAF: eksik

4.000'den fazla havaalanı için hava durumu gözlemleri ve tahminleri (METAR ve TAF raporları).

Kullanılabilir istasyonlar harita üzerinde sarı ve kırmızı noktalarla gösterilir.

İstasyonun adını görmek için fareyi noktanın üzerinde gezdirin.

Sonrasında hava gözlem ve tahminlerini görmek için tıklayın.

Haritayı değiştirmek için: yaklaştırmak için siyah artı işaretli yeşil düğmeye ve uzaklaştırmak için de eksi işaretli düğmeye hızla tıklayın; bitişik haritalar için yeşil okları kullanın.


METAR-TAF: